Weather History for Bentonville, AR

Change the Weather History Date:

Friday, April 19, 2013

  Actual Average Record
Temperature  
Mean Temperature 43 °F -  
Max Temperature 53 °F 70 °F 90 °F (1987)
Min Temperature 33 °F 47 °F 28 °F (1953)
Degree Days  
Heating Degree Days 22    
Moisture  
Dew Point 26 °F    
Average Humidity 52    
Maximum Humidity 70    
Minimum Humidity 35    
Precipitation  
Precipitation 0.00 in - - ()
Sea Level Pressure  
Sea Level Pressure 30.05 in    
Wind  
Wind Speed 12 mph (West)    
Max Wind Speed 18 mph    
Max Gust Speed 28 mph    
Visibility 10 miles    
Events      
Averages and records for this station are not official NWS values.
T = Trace of Precipitation, MM = Missing Value Source: NWS Daily Summary

Daily Weather History Graph

Daily Weather History Graph

Search for Another Location

Airport:

Trip Planner

Search our weather history database for the weather conditions in past years. The results will help you decide how hot, cold, wet, or windy it might be!

Date:

Astronomy

Apr. 19, 2013 Rise Set
Actual Time 6:37 AM CDT 7:54 PM CDT
Civil Twilight 6:11 AM CDT 8:21 PM CDT
Nautical Twilight 5:39 AM CDT 8:53 PM CDT
Astronomical Twilight 5:05 AM CDT 9:27 PM CDT
Moon 1:50 PM CDT (4/19) 2:42 AM CDT (4/19)
Length of Visible Light 14h 10m
Length of Day
13h 16m
First Quarter, 62% of the Moon is Illuminated
Apr 19
First Quarter
Apr 25
Full
May 2
Last Quarter
May 9
New
May 17
First Quarter

Hourly Weather History & Observations

Time (CDT) Temp. Windchill Dew Point Humidity Pressure Visibility Wind Dir Wind Speed Gust Speed Precip Events Conditions
12:15 AM 37.4 °F 28.2 °F 24.8 °F 60% 29.99 in 10.0 mi WNW 16.1 mph 27.6 mph N/A   Overcast
12:35 AM 37.4 °F 28.9 °F 24.8 °F 60% 29.99 in 10.0 mi NW 13.8 mph 24.2 mph N/A   Mostly Cloudy
12:55 AM 37.4 °F 28.9 °F 24.8 °F 60% 29.99 in 10.0 mi WNW 13.8 mph 21.9 mph N/A   Mostly Cloudy
1:15 AM 37.4 °F 29.8 °F 24.8 °F 60% 29.99 in 10.0 mi WNW 11.5 mph 18.4 mph N/A   Overcast
1:35 AM 37.4 °F 29.8 °F 24.8 °F 60% 29.99 in 10.0 mi WNW 11.5 mph - N/A   Overcast
1:55 AM 37.4 °F 29.8 °F 24.8 °F 60% 29.99 in 10.0 mi WNW 11.5 mph - N/A   Overcast
2:15 AM 37.4 °F 29.8 °F 26.6 °F 65% 29.98 in 10.0 mi WNW 11.5 mph - N/A   Overcast
2:35 AM 37.4 °F 31.4 °F 26.6 °F 65% 29.98 in 10.0 mi West 8.1 mph - N/A   Overcast
2:55 AM 37.4 °F 29.8 °F 26.6 °F 65% 29.98 in 10.0 mi WNW 11.5 mph 18.4 mph N/A   Overcast
3:15 AM 37.4 °F 28.5 °F 26.6 °F 65% 29.97 in 10.0 mi WNW 15.0 mph - N/A   Overcast
3:35 AM 37.4 °F 30.3 °F 26.6 °F 65% 29.97 in 10.0 mi WNW 10.4 mph 20.7 mph N/A   Overcast
3:55 AM 37.4 °F 29.8 °F 26.6 °F 65% 29.97 in 10.0 mi West 11.5 mph - N/A   Overcast
4:15 AM 37.4 °F 28.5 °F 24.8 °F 60% 29.98 in 10.0 mi WNW 15.0 mph 20.7 mph N/A   Overcast
4:35 AM 35.6 °F 28.0 °F 26.6 °F 70% 29.98 in 10.0 mi WNW 10.4 mph - N/A   Overcast
4:55 AM 35.6 °F 27.5 °F 24.8 °F 65% 29.98 in 10.0 mi WNW 11.5 mph - N/A   Scattered Clouds
5:15 AM 35.6 °F 27.1 °F 23.0 °F 60% 29.99 in 10.0 mi WNW 12.7 mph 18.4 mph N/A   Clear
5:55 AM 33.8 °F 25.8 °F 24.8 °F 70% 30.00 in 10.0 mi West 10.4 mph - N/A   Mostly Cloudy
6:15 AM 33.8 °F 27.0 °F 24.8 °F 70% 30.01 in 10.0 mi West 8.1 mph - N/A   Partly Cloudy
6:35 AM 33.8 °F 27.0 °F 24.8 °F 70% 30.02 in 10.0 mi West 8.1 mph - N/A   Clear
6:55 AM 33.8 °F 27.0 °F 24.8 °F 70% 30.03 in 10.0 mi WNW 8.1 mph - N/A   Clear
7:15 AM 33.8 °F 25.8 °F 24.8 °F 70% 30.04 in 10.0 mi WNW 10.4 mph - N/A   Clear
7:35 AM 33.8 °F 26.4 °F 24.8 °F 70% 30.05 in 10.0 mi WNW 9.2 mph - N/A   Clear
7:55 AM 35.6 °F 27.1 °F 24.8 °F 65% 30.05 in 10.0 mi WNW 12.7 mph 18.4 mph N/A   Clear
8:15 AM 35.6 °F 28.6 °F 24.8 °F 65% 30.06 in 10.0 mi WNW 9.2 mph - N/A   Clear
8:35 AM 35.6 °F 26.2 °F 24.8 °F 65% 30.06 in 10.0 mi WNW 15.0 mph 20.7 mph N/A   Clear
8:55 AM 37.4 °F 27.5 °F 24.8 °F 60% 30.07 in 10.0 mi WNW 18.4 mph - N/A   Partly Cloudy
9:15 AM 37.4 °F 28.2 °F 24.8 °F 60% 30.07 in 10.0 mi WNW 16.1 mph 23.0 mph N/A   Scattered Clouds
9:55 AM 39.2 °F 30.5 °F 24.8 °F 56% 30.07 in 10.0 mi NW 16.1 mph 24.2 mph N/A   Partly Cloudy
10:15 AM 39.2 °F 30.5 °F 24.8 °F 56% 30.08 in 10.0 mi NW 16.1 mph 24.2 mph N/A   Clear
10:35 AM 41.0 °F 33.1 °F 24.8 °F 53% 30.08 in 10.0 mi NW 15.0 mph 23.0 mph N/A   Partly Cloudy
10:55 AM 42.8 °F 35.1 °F 24.8 °F 49% 30.09 in 10.0 mi NW 16.1 mph 23.0 mph N/A   Partly Cloudy
11:15 AM 42.8 °F 34.8 °F 24.8 °F 49% 30.09 in 10.0 mi WNW 17.3 mph 23.0 mph N/A   Clear
11:35 AM 42.8 °F 36.2 °F 24.8 °F 49% 30.09 in 10.0 mi WNW 12.7 mph 23.0 mph N/A   Clear
11:55 AM 44.6 °F 38.4 °F 26.6 °F 49% 30.09 in 10.0 mi WNW 12.7 mph 21.9 mph N/A   Clear
12:15 PM 44.6 °F 37.4 °F 24.8 °F 46% 30.09 in 10.0 mi WNW 16.1 mph 20.7 mph N/A   Clear
12:35 PM 46.4 °F 40.7 °F 26.6 °F 46% 30.09 in 10.0 mi NW 12.7 mph 20.7 mph N/A   Clear
12:55 PM 46.4 °F 40.7 °F 26.6 °F 46% 30.08 in 10.0 mi West 12.7 mph 19.6 mph N/A   Clear
1:15 PM 48.2 °F - 26.6 °F 43% 30.08 in 10.0 mi WNW 13.8 mph 25.3 mph N/A   Clear
1:35 PM 48.2 °F - 28.4 °F 46% 30.08 in 10.0 mi WNW 12.7 mph 21.9 mph N/A   Clear
1:55 PM 48.2 °F - 24.8 °F 40% 30.07 in 10.0 mi West 16.1 mph 20.7 mph N/A   Clear
2:15 PM 48.2 °F - 26.6 °F 43% 30.07 in 10.0 mi West 11.5 mph 25.3 mph N/A   Clear
2:35 PM 50.0 °F - 24.8 °F 37% 30.07 in 10.0 mi West 13.8 mph 23.0 mph N/A   Clear
2:55 PM 51.8 °F - 26.6 °F 38% 30.06 in 10.0 mi West 13.8 mph 21.9 mph N/A   Clear
3:15 PM 51.8 °F - 24.8 °F 35% 30.06 in 10.0 mi West 12.7 mph 21.9 mph N/A   Clear
3:35 PM 51.8 °F - 26.6 °F 38% 30.06 in 10.0 mi West 10.4 mph 21.9 mph N/A   Clear
3:55 PM 51.8 °F - 26.6 °F 38% 30.05 in 10.0 mi West 11.5 mph 21.9 mph N/A   Clear
4:15 PM 53.6 °F - 26.6 °F 35% 30.05 in 10.0 mi West 12.7 mph 23.0 mph N/A   Clear
4:35 PM 53.6 °F - 26.6 °F 35% 30.05 in 10.0 mi WSW 13.8 mph 17.3 mph N/A   Clear
4:55 PM 53.6 °F - 28.4 °F 38% 30.05 in 10.0 mi West 16.1 mph 21.9 mph N/A   Clear
5:15 PM 53.6 °F - 28.4 °F 38% 30.06 in 10.0 mi West 16.1 mph 19.6 mph N/A   Partly Cloudy
5:35 PM 53.6 °F - 26.6 °F 35% 30.06 in 10.0 mi WNW 15.0 mph 23.0 mph N/A   Clear
5:55 PM 53.6 °F - 26.6 °F 35% 30.06 in 10.0 mi West 10.4 mph 17.3 mph N/A   Clear
6:15 PM 53.6 °F - 26.6 °F 35% 30.06 in 10.0 mi WNW 11.5 mph 16.1 mph N/A   Clear
6:35 PM 53.6 °F - 26.6 °F 35% 30.06 in 10.0 mi West 10.4 mph - N/A   Clear
6:55 PM 53.6 °F - 26.6 °F 35% 30.05 in 10.0 mi West 10.4 mph - N/A   Clear
7:15 PM 51.8 °F - 28.4 °F 41% 30.05 in 10.0 mi West 5.8 mph - N/A   Clear
7:35 PM 51.8 °F - 28.4 °F 41% 30.05 in 10.0 mi WSW 5.8 mph - N/A   Clear
7:55 PM 50.0 °F - 28.4 °F 43% 30.05 in 10.0 mi SW 4.6 mph - N/A   Clear
8:15 PM 48.2 °F - 28.4 °F 46% 30.05 in 10.0 mi SSW 3.5 mph - N/A   Clear
8:35 PM 48.2 °F - 28.4 °F 46% 30.05 in 10.0 mi Calm Calm - N/A   Clear
8:55 PM 46.4 °F 45.2 °F 28.4 °F 50% 30.06 in 10.0 mi SSW 3.5 mph - N/A   Clear
9:15 PM 46.4 °F 44.3 °F 28.4 °F 50% 30.07 in 10.0 mi South 4.6 mph - N/A   Clear
9:35 PM 44.6 °F 42.2 °F 28.4 °F 53% 30.07 in 10.0 mi South 4.6 mph - N/A   Clear
9:55 PM 46.4 °F 45.2 °F 26.6 °F 46% 30.08 in 10.0 mi South 3.5 mph - N/A   Clear
10:15 PM 46.4 °F - 26.6 °F 46% 30.09 in 10.0 mi Calm Calm - N/A   Clear
10:35 PM 44.6 °F - 28.4 °F 53% 30.09 in 10.0 mi Calm Calm - N/A   Clear
10:55 PM 44.6 °F 43.1 °F 26.6 °F 49% 30.09 in 10.0 mi South 3.5 mph - N/A   Clear
11:15 PM 44.6 °F - 26.6 °F 49% 30.09 in 10.0 mi Calm Calm - N/A   Clear
11:35 PM 42.8 °F 40.1 °F 28.4 °F 57% 30.09 in 10.0 mi SSE 4.6 mph - N/A   Clear
11:55 PM 42.8 °F 40.1 °F 28.4 °F 57% 30.09 in 10.0 mi South 4.6 mph - N/A   Clear